www.pogodaiklimat.ru

Погода и климат >> Архив погоды >> Индия >> Бихар >> Бхагалпур


ПОГОДА в Бхагалпуре

  • Прогноз погоды в Бхагалпуре
  • Монитор погоды в Бхагалпуре

АРХИВ ПОГОДЫ в Бхагалпуре

Время (UTC), дата Ветер
(напр.,м/с)
 
Видим.   Явления Облачность Т
(С)
Тd
(С)
f
(%)
Тe
(С)
Тes
(С)
Комфортность P
(гПа)
Po
(гПа)
Тmin
(С)
Tmax
(С)
R
(мм)
R24
(мм)
S
(см)
12 12.01 штиль 0 1000 м дымка 4/1 600 м
[Sc Ac trans]
+20.0 +16.0 78 +22 +22 комфорт 1017.1 1017.0 +24.0
15 12.01 штиль 0 1000 м дымка ясно +15.6 +12.7 83 +15 +15 1018.6 1019.0
18 12.01 штиль 0 1000 м дымка ясно +13.8 +11.6 87 +13 +13 1019.9 1020.0
21 12.01 штиль 0 1000 м дымка ясно +12.0 +10.1 88 +11 +11 1019.1 1019.0
00 13.01 штиль 0 1000 м дымка ясно +11.6 +9.6 88 +11 +11 1018.7 1019.0
03 13.01 Ю 1 1000 м дымка ясно +12.8 +9.3 79 +14 +18 1019.5 1020.0 +9.0
06 13.01 штиль 0 2000 м мгла ясно +21.6 +14.1 62 +24 +39 комфорт 1019.6 1020.0
09 13.01 штиль 0 2000 м мгла ясно +23.6 +13.7 54 +26 +33 жарко 1016.4 1016.0
12 13.01 штиль 0 1000 м дымка ясно +20.4 +15.7 74 +23 +23 комфорт 1015.2 1015.0 +25.5
15 13.01 штиль 0 1000 м дымка ясно +16.2 +12.6 79 +16 +16 1016.0 1016.0
18 13.01 штиль 0 1000 м дымка ясно +14.8 +11.5 81 +15 +15 1015.6 1016.0
21 13.01 штиль 0 1000 м дымка ясно +13.2 +10.9 86 +13 +13 1014.6 1015.0
00 14.01 штиль 0 1000 м дымка ясно +12.8 +10.5 86 +12 +12 1015.0 1015.0
03 14.01 штиль 0 1000 м дымка ясно +13.2 +10.5 84 +13 +18 1018.1 1018.0 +10.3
06 14.01 С 1 2000 м мгла ясно +21.4 +13.8 62 +24 +37 комфорт 1016.9 1017.0
09 14.01 С 1 2000 м мгла ясно +21.8 +13.9 61 +25 +31 комфорт 1014.1 1014.0
12 14.01 штиль 0 1000 м дымка ясно +19.2 +14.4 74 +20 +20 1014.3 1014.0 +23.5
15 14.01 штиль 0 1000 м дымка ясно +16.0 +12.4 79 +16 +16 1016.0 1016.0
18 14.01 штиль 0 1000 м дымка ясно +14.2 +11.2 82 +14 +14 1016.5 1017.0
21 14.01 штиль 0 1000 м дымка ясно +13.0 +10.3 84 +13 +13 1015.7 1016.0
00 15.01 З 1 1000 м дымка ясно +12.4 +10.1 86 +12 +12 1016.5 1017.0
09 15.01 З 2 2000 м мгла ясно +22.2 +9.2 43 +24 +29 комфорт 1016.7 1017.0
12 15.01 З 1 2000 м мгла 6/4 600 м
[Sc Ac trans Ci fib]
+18.0 +11.4 65 +20 +20 1016.7 1017.0 +23.4
15 15.01 штиль 0 2000 м мгла 4/0
[Ac trans]
+14.6 +9.6 72 +14 +14 1018.7 1019.0
18 15.01 штиль 0 2000 м мгла 4/0
[Ac trans]
+12.8 +9.3 79 +12 +12 1018.3 1018.0
21 15.01 штиль 0 1000 м дымка 4/0
[Ac trans]
+11.6 +8.4 81 +11 +11 1017.4 1017.0
00 16.01 штиль 0 1000 м дымка 4/0
[Ac trans]
+10.8 +8.4 85 +10 +10 1017.9 1018.0
03 16.01 штиль 0 1000 м дымка ясно +11.4 +7.3 76 +11 +16 1020.6 1021.0 +7.7
06 16.01 СЗ 1 2000 м мгла ясно +20.0 +11.7 59 +23 +37 комфорт 1019.8 1020.0
09 16.01 СЗ 1 2000 м мгла ясно +21.4 +12.6 57 +24 +30 комфорт 1016.8 1017.0
12 16.01 штиль 0 1000 м дымка ясно +18.4 +14.2 77 +19 +19 1016.0 1016.0 +22.7
15 16.01 штиль 0 1000 м дымка ясно +14.8 +11.9 83 +15 +15 1017.9 1018.0
18 16.01 штиль 0 1000 м дымка ясно +13.0 +11.1 88 +12 +12 1018.1 1018.0
21 16.01 штиль 0 1000 м дымка ясно +11.4 +9.8 90 +11 +11 1017.4 1017.0
00 17.01 штиль 0 1000 м дымка ясно +10.8 +9.2 90 +10 +10 1015.7 1016.0
03 17.01 штиль 0 1000 м дымка ясно +13.0 +9.9 81 +13 +18 1017.7 1018.0 +8.8
06 17.01 штиль 0 2000 м мгла ясно +20.4 +13.0 62 +22 +37 комфорт 1017.4 1017.0
09 17.01 штиль 0 2000 м мгла ясно +22.4 +14.2 60 +26 +33 жарко 1014.1 1014.0
12 17.01 З 1 2000 м мгла ясно +19.6 +15.9 79 +23 +23 комфорт 1013.7 1014.0 +23.6
15 17.01 штиль 0 1000 м дымка ясно +15.8 +13.7 87 +16 +16 1015.7 1016.0
18 17.01 штиль 0 1000 м дымка ясно +14.4 +12.6 89 +14 +14 1015.5 1016.0
21 17.01 штиль 0 1000 м дымка ясно +13.2 +11.7 91 +13 +13 1014.5 1015.0
00 18.01 ЮВ 1 1000 м дымка ясно +12.4 +10.5 88 +13 +13 1014.8 1015.0
03 18.01 штиль 0 1000 м дымка ясно +13.4 +10.7 84 +13 +18 1017.9 1018.0 +10.1
06 18.01 штиль 0 2000 м мгла ясно +20.6 +12.9 61 +23 +37 комфорт 1017.5 1018.0
09 18.01 штиль 0 2000 м мгла ясно +22.2 +14.0 60 +25 +32 комфорт 1014.4 1014.0
12 18.01 штиль 0 2000 м мгла ясно +19.4 +15.7 79 +21 +21 комфорт 1014.0 1014.0 +23.4
15 18.01 З 1 1000 м дымка ясно +15.8 +13.3 85 +17 +17 1016.1 1016.0
18 18.01 штиль 0 1000 м дымка ясно +14.6 +12.4 87 +14 +14 1016.9 1017.0
21 18.01 штиль 0 1000 м дымка ясно +13.6 +11.7 88 +13 +13 1016.1 1016.0
00 19.01 штиль 0 1000 м дымка ясно +12.2 +10.3 88 +12 +12 1016.5 1017.0
03 19.01 штиль 0 1000 м дымка ясно +12.8 +10.5 86 +12 +18 1018.7 1019.0 +9.8
06 19.01 СЗ 1 2000 м мгла ясно +21.0 +14.1 65 +25 +39 комфорт 1019.0 1019.0
09 19.01 З 1 2000 м мгла ясно +22.0 +14.5 62 +25 +32 комфорт 1016.2 1016.0

 

Местоположение метеостанции Бхагалпур (Бихар, Индия): широта 25.23 долгота 86.95 высота над уровнем моря 49 м.

В архиве по умолчанию представлена погода в Бхагалпуре за последнюю неделю. Архивные данные за месяц целиком и за предыдущие месяцы, начиная с января 2011 года, Вы можете получить, выбрав интересующий диапазон дат из раскрывающегося списка и нажав кнопку "Ввод!".


*Определитесь, кто Вы:
робот инопланетянин человек

Внимание! Время в таблицах - всемирное. Для получения местного времени необходимо прибавить поправку, которая равна 5.5 ч.

Смотрите также архив погоды в соседних городах и на ближайших метеорологических станциях:

Погода в Пурнеа (Бихар, Индия) (53 км)
Погода в Малда (Западная Бенгалия, Индия) (121 км)
Погода в Биратнагаре (Непал) (142 км)
Погода в Бадалхачги (Бангладеш) (156 км)
Погода в Асансоле (Западная Бенгалия, Индия) (172 км)
Погода в Динаджпуре (Бангладеш) (180 км)
Погода в Бахарампуре (Западная Бенгалия, Индия) (181 км)
Погода в Балургхате (Западная Бенгалия, Индия) (184 км)
Погода в Димле (Бангладеш) (187 км)
Погода в Патне (Бихар, Индия) (190 км)

Пояснения к столбцам:

Ветер - указаны скорость ветра в м/с - средняя за 10 мин, порывы в срок и между сроками (в фигурных скобках) и направление, откуда дует ветер: С - северный, СВ - северо-восточный, В - восточный, ЮВ - юго-восточный, Ю - южный, ЮЗ - юго-западный, З - западный, СЗ - северо-западный.
Видимость - горизонтальная дальность видимости в метрах или километрах. При видимости от 1 до 10 км при отсутствии осадков обычно наблюдается дымка, при ухудшении видимости до 1 км и менее - туман. В сухую погоду видимость может ухудшаться дымом, пылью или мглою.
Явления - указаны атмосферные явления, наблюдавшиеся в срок или в последний час перед сроком; фигурными скобками обозначены явления, наблюдавшиеся между сроками (за 1-3 часа до срока); квадратными скобками обозначены град или гололедные отложения с указанием их диаметра в мм.
Облачность - указаны через наклонную черту общая и нижняя облачность в баллах и высота нижней границы облаков в метрах; квадратными скобками обозначены формы облаков: Ci - перистые, Cs - перисто-слоистые, Cc - перисто-кучевые, Ac - высококучевые, As - высокослоистые, Sc - слоисто-кучевые, Ns - слоисто-дождевые, Cu - кучевые, Cb - кучево-дождевые. Подробнее классификацию облаков см. в Атласе облаков (PDF).
T - Температура воздуха - температура, измеренная на высоте 2 м над землей.
Td - Температура точки росы - температура, при понижении до которой содержащийся в воздухе водяной пар достигнет насыщения.
f - Относительная влажность воздуха - влажноcть воздуха, измеренная на высоте 2 м над землей.
Te - Эффективная температура - температура, которую ощущает одетый по сезону человек в тени. Характеристика душности погоды. При расчете учитывается влияние влажности воздуха и скорости ветра на теплоощущения человека.
Tes - Эффективная температура на солнце - температура, которую ощущает человек, с поправкой на солнечный нагрев. Характеристика знойности погоды. Зависит от высоты солнца над горизонтом, облачности и скорости ветра. Ночью, в пасмурную погоду, а также при ветре 12 м/с и более поправка равна нулю.
P - Атмосферное давление - приведенное к уровню моря атмосферное давление.
Po - Атмосферное давление - измеренное на уровне метеостанции атмосферное давление.
Tmin - Минимальная температура - минимум температуры воздуха на высоте 2 м над землей.
Tmax - Максимальная температура - максимум температуры воздуха на высоте 2 м над землей.
R - Количество осадков - Количество выпавших осадков за период времени, мм. При наведении курсора мыши на число - период времени, за который выпало указанное количество осадков.
R24 - Количество осадков - Количество выпавших осадков за 24 часа, мм.
S - Снежный покров - Высота снежного покрова, см. При наведении курсора мыши на число - состояние снежного покрова и степень покрытия местности в баллах.